Flag for Switzerland Weather past 2 weeks in Mendrisio, Ticino, Switzerland

Now
67 °F

Mild.


Feels Like: 67 °F
Forecast: 57 / 66 °F
Wind: 2 mph from Southwest

Location: Stabio

Current Time: Aug 1, 2014 at 10:11:49 AM

Latest Report: Aug 1, 2014 at 9:00 AM


Visibility: N/A

Pressure: 29.87 "Hg

Humidity: 99%

Dew point: 67 °F

Location of MendrisioLocation

Historic Weather in Mendrisio — Graph

°F

Mendrisio temperature yesterday

Maximum temperature yesterday: 83 °F (at 4:00 PM)
Minimum temperature yesterday: 56 °F (at 5:00 AM)
Average temperature yesterday: 70 °F

Past Weeks' High & Low Weather Summary

 TemperatureHumidityPressure
High85 °F (Jul 18, 4:00 PM)100% (Jul 23, 4:00 AM)30.13 "Hg (Jul 23, 4:00 AM)
Low54 °F (Jul 30, 12:00 AM)48% (Jul 17, 5:00 PM)29.66 "Hg (Jul 30, 10:00 AM)
Average68 °F85%29.88 "Hg
* Reported Jul 17 8:00 AM — Aug 1 8:00 AM, Mendrisio, Weather by CustomWeather, © 2014

Note: Actual official high and low records may vary slightly from our data, if they occured in-between our weather recording intervals... More about our weather records

Advertising

Mendrisio weather history for previous 24 hours

 ConditionsComfort  
Time TempWeatherWind HumidityBarometerVisibility
8:00 AM
Aug 1
68 °FMild.1 mph99%29.86 "HgN/A
7:00 AM67 °FMild.No wind98%29.85 "HgN/A
6:00 AM65 °FMild.1 mph99%29.85 "HgN/A
5:00 AM66 °FMild.1 mph99%29.86 "HgN/A
4:00 AM66 °FMild.1 mph98%29.86 "HgN/A
3:00 AM67 °FMild.1 mph97%29.86 "HgN/A
2:00 AM67 °FMild.2 mph96%29.86 "HgN/A
1:00 AM66 °FMild.1 mph97%29.87 "HgN/A
12:00 AM66 °FMild.1 mph97%29.86 "HgN/A
11:00 PM
Jul 31
67 °FMild.1 mph96%29.85 "HgN/A
10:00 PM68 °FMild.1 mph97%29.84 "HgN/A
9:00 PM70 °FMild.1 mph92%29.81 "HgN/A
8:00 PM77 °FWarm.1 mph70%29.78 "HgN/A
7:00 PM80 °FWarm.5 mph60%29.77 "HgN/A
6:00 PM81 °FWarm.2 mph56%29.77 "HgN/A
5:00 PM82 °FWarm.3 mph53%29.77 "HgN/A
4:00 PM83 °FWarm.3 mph59%29.77 "HgN/A
3:00 PM82 °FWarm.3 mph59%29.77 "HgN/A
2:00 PM81 °FWarm.3 mph60%29.77 "HgN/A
1:00 PM80 °FWarm.3 mph56%29.77 "HgN/A
12:00 PM78 °FWarm.2 mph64%29.78 "HgN/A
11:00 AM76 °FMild.2 mph63%29.78 "HgN/A
10:00 AM74 °FMild.3 mph72%29.78 "HgN/A
Weather by CustomWeather, © 2014

See weather overviewHow to use our weather pages